Volver al catálogo

VANGUARD DEB

ActivoUNKNOWN
NORAD 61446·DEBRIS·🇺🇸 United States

Lanzado Feb 17, 1959 desde Cape Canaveral Space Force Station

Loading…

Próximos Pases (próximas 24 horas)

TLE

ActualizadoSource: Space-Track

Época: Sep 9, 2026, 06:59 UTC

1 61446U 59001E   26252.29118647  .00001035  00000-0  38738-3 0  9992
2 61446  32.8705  93.5493 1216150 277.5407 261.5082 12.44861854995379

Sigue VANGUARD DEB en tiempo real con AllMySat

Download on the App Store